TimeEST,TemperatureF,Dew PointF,Humidity,Sea Level PressureIn,VisibilityMPH,Wind Direction,Wind SpeedMPH,Gust SpeedMPH,PrecipitationIn,Events,Conditions,WindDirDegrees,DateUTC
12:15 AM,39.2,15.8,39,29.86,10.0,WNW,21.9,33.4,N/A,,Overcast,290,2013-03-06 05:15:00
12:35 AM,37.4,17.6,45,29.86,10.0,WNW,16.1,28.8,N/A,,Overcast,290,2013-03-06 05:35:00
12:55 AM,37.4,17.6,45,29.85,10.0,WNW,17.3,25.3,N/A,,Overcast,300,2013-03-06 05:55:00
1:15 AM,37.4,17.6,45,29.85,10.0,WNW,13.8,25.3,N/A,,Overcast,300,2013-03-06 06:15:00
1:35 AM,37.4,17.6,45,29.85,10.0,WNW,12.7,24.2,N/A,,Overcast,290,2013-03-06 06:35:00
1:55 AM,37.4,17.6,45,29.84,10.0,WNW,18.4,23.0,N/A,,Overcast,300,2013-03-06 06:55:00
2:15 AM,37.4,17.6,45,29.84,10.0,WNW,19.6,25.3,N/A,,Mostly Cloudy,290,2013-03-06 07:15:00
2:35 AM,37.4,17.6,45,29.84,10.0,NW,18.4,28.8,N/A,,Mostly Cloudy,310,2013-03-06 07:35:00
2:55 AM,37.4,19.4,48,29.84,10.0,WNW,13.8,25.3,N/A,,Overcast,300,2013-03-06 07:55:00
3:15 AM,33.8,24.8,70,29.85,2.0,WNW,19.6,28.8,N/A,Snow,Light Snow,300,2013-03-06 08:15:00
3:35 AM,33.8,23.0,65,29.85,10.0,WNW,11.5,21.9,N/A,,Mostly Cloudy,300,2013-03-06 08:35:00
3:55 AM,33.8,19.4,56,29.85,10.0,WNW,13.8,31.1,N/A,,Scattered Clouds,290,2013-03-06 08:55:00
4:15 AM,33.8,15.8,48,29.86,10.0,NW,17.3,31.1,N/A,,Scattered Clouds,310,2013-03-06 09:15:00
4:35 AM,33.8,14.0,44,29.86,10.0,NW,18.4,27.6,N/A,,Mostly Cloudy,310,2013-03-06 09:35:00
4:55 AM,32.0,14.0,48,29.87,10.0,WNW,16.1,25.3,N/A,,Scattered Clouds,300,2013-03-06 09:55:00
5:15 AM,32.0,14.0,48,29.87,10.0,NW,18.4,27.6,N/A,,Clear,310,2013-03-06 10:15:00
5:35 AM,32.0,14.0,48,29.89,10.0,NW,13.8,25.3,N/A,,Scattered Clouds,310,2013-03-06 10:35:00
5:55 AM,32.0,12.2,44,29.90,10.0,WNW,13.8,19.6,N/A,,Mostly Cloudy,300,2013-03-06 10:55:00
6:15 AM,32.0,12.2,44,29.90,10.0,WNW,20.7,28.8,N/A,,Overcast,290,2013-03-06 11:15:00
6:55 AM,32.0,12.2,44,29.91,10.0,WNW,23.0,33.4,N/A,,Mostly Cloudy,300,2013-03-06 11:55:00
7:15 AM,32.0,12.2,44,29.92,10.0,WNW,12.7,16.1,N/A,,Overcast,300,2013-03-06 12:15:00
7:35 AM,32.0,14.0,48,29.92,10.0,WNW,18.4,27.6,N/A,,Overcast,290,2013-03-06 12:35:00
7:55 AM,33.8,14.0,44,29.93,10.0,West,10.4,-,N/A,,Overcast,280,2013-03-06 12:55:00
8:15 AM,33.8,14.0,44,29.94,10.0,WNW,15.0,20.7,N/A,,Overcast,300,2013-03-06 13:15:00
8:35 AM,33.8,15.8,48,29.94,10.0,NW,18.4,24.2,N/A,,Overcast,310,2013-03-06 13:35:00
8:55 AM,33.8,17.6,52,29.95,10.0,WNW,23.0,29.9,N/A,,Overcast,300,2013-03-06 13:55:00
9:15 AM,33.8,17.6,52,29.94,10.0,NW,24.2,28.8,N/A,,Overcast,310,2013-03-06 14:15:00
9:35 AM,35.6,17.6,48,29.97,10.0,WNW,18.4,25.3,N/A,,Overcast,300,2013-03-06 14:35:00
9:55 AM,35.6,19.4,52,29.97,10.0,WNW,21.9,27.6,N/A,,Overcast,290,2013-03-06 14:55:00
10:15 AM,35.6,17.6,48,29.98,10.0,WNW,15.0,26.5,N/A,,Overcast,290,2013-03-06 15:15:00
10:35 AM,35.6,15.8,44,29.98,10.0,WNW,20.7,29.9,N/A,,Overcast,300,2013-03-06 15:35:00
10:55 AM,37.4,15.8,41,29.98,10.0,NW,24.2,32.2,N/A,,Mostly Cloudy,310,2013-03-06 15:55:00
11:15 AM,39.2,14.0,36,29.99,10.0,NW,21.9,33.4,N/A,,Scattered Clouds,320,2013-03-06 16:15:00
11:35 AM,37.4,14.0,38,30.01,10.0,NW,18.4,34.5,N/A,,Mostly Cloudy,310,2013-03-06 16:35:00
11:55 AM,41.0,14.0,33,30.02,10.0,WNW,20.7,27.6,N/A,,Overcast,300,2013-03-06 16:55:00
12:15 PM,41.0,12.2,31,30.02,10.0,NW,15.0,32.2,N/A,,Overcast,320,2013-03-06 17:15:00
12:35 PM,39.2,12.2,33,30.03,10.0,NNW,12.7,27.6,N/A,,Overcast,330,2013-03-06 17:35:00
12:55 PM,39.2,14.0,36,30.03,10.0,NNW,18.4,31.1,N/A,,Overcast,330,2013-03-06 17:55:00
1:15 PM,37.4,14.0,38,30.04,10.0,NW,24.2,32.2,N/A,,Scattered Clouds,310,2013-03-06 18:15:00
1:35 PM,37.4,14.0,38,30.05,10.0,WNW,16.1,25.3,N/A,,Mostly Cloudy,300,2013-03-06 18:35:00
1:55 PM,37.4,15.8,41,30.05,10.0,NW,19.6,27.6,N/A,,Overcast,310,2013-03-06 18:55:00
2:15 PM,37.4,15.8,41,30.04,10.0,NW,17.3,27.6,N/A,,Overcast,310,2013-03-06 19:15:00
2:35 PM,37.4,17.6,45,30.04,10.0,NW,18.4,31.1,N/A,,Overcast,320,2013-03-06 19:35:00
2:55 PM,37.4,17.6,45,30.05,10.0,NW,18.4,25.3,N/A,,Mostly Cloudy,310,2013-03-06 19:55:00
3:15 PM,39.2,17.6,42,30.06,10.0,NW,16.1,20.7,N/A,,Mostly Cloudy,310,2013-03-06 20:15:00
3:35 PM,37.4,17.6,45,30.06,10.0,NW,18.4,26.5,N/A,,Overcast,310,2013-03-06 20:35:00
3:55 PM,37.4,17.6,45,30.07,10.0,NW,11.5,25.3,N/A,,Overcast,320,2013-03-06 20:55:00
4:15 PM,37.4,17.6,45,30.07,10.0,NW,17.3,20.7,N/A,,Overcast,310,2013-03-06 21:15:00
4:35 PM,37.4,19.4,48,30.08,10.0,WNW,13.8,23.0,N/A,,Overcast,300,2013-03-06 21:35:00
4:55 PM,37.4,19.4,48,30.08,10.0,NW,15.0,23.0,N/A,,Overcast,310,2013-03-06 21:55:00
5:15 PM,39.2,19.4,45,30.08,10.0,NW,9.2,20.7,N/A,,Mostly Cloudy,320,2013-03-06 22:15:00
5:35 PM,39.2,19.4,45,30.09,10.0,NW,8.1,17.3,N/A,,Mostly Cloudy,310,2013-03-06 22:35:00
5:55 PM,37.4,19.4,48,30.10,10.0,WNW,11.5,17.3,N/A,,Overcast,300,2013-03-06 22:55:00
6:15 PM,37.4,19.4,48,30.10,10.0,NW,11.5,19.6,N/A,,Mostly Cloudy,310,2013-03-06 23:15:00
6:35 PM,35.6,19.4,52,30.10,10.0,NW,10.4,-,N/A,,Clear,310,2013-03-06 23:35:00
6:55 PM,35.6,19.4,52,30.11,10.0,NW,10.4,-,N/A,,Clear,310,2013-03-06 23:55:00
7:15 PM,35.6,21.2,56,30.12,10.0,WNW,10.4,17.3,N/A,,Clear,300,2013-03-07 00:15:00
7:35 PM,35.6,21.2,56,30.12,10.0,WNW,10.4,17.3,N/A,,Clear,290,2013-03-07 00:35:00
7:55 PM,35.6,21.2,56,30.12,10.0,WNW,10.4,-,N/A,,Clear,300,2013-03-07 00:55:00
8:15 PM,35.6,21.2,56,30.12,10.0,WNW,12.7,-,N/A,,Clear,300,2013-03-07 01:15:00
8:35 PM,35.6,21.2,56,30.12,10.0,WNW,12.7,-,N/A,,Clear,300,2013-03-07 01:35:00
8:55 PM,35.6,21.2,56,30.11,10.0,WNW,15.0,18.4,N/A,,Clear,300,2013-03-07 01:55:00
9:15 PM,35.6,21.2,56,30.11,10.0,WNW,9.2,-,N/A,,Clear,300,2013-03-07 02:15:00
9:35 PM,33.8,21.2,60,30.12,10.0,WNW,9.2,-,N/A,,Clear,300,2013-03-07 02:35:00
9:55 PM,33.8,21.2,60,30.12,10.0,NW,17.3,-,N/A,,Clear,310,2013-03-07 02:55:00
10:15 PM,33.8,21.2,60,30.12,10.0,NW,10.4,18.4,N/A,,Clear,320,2013-03-07 03:15:00
10:35 PM,33.8,21.2,60,30.13,10.0,NW,9.2,-,N/A,,Clear,310,2013-03-07 03:35:00
10:55 PM,33.8,21.2,60,30.13,10.0,NW,11.5,-,N/A,,Clear,320,2013-03-07 03:55:00
11:15 PM,33.8,21.2,60,30.13,10.0,NW,11.5,-,N/A,,Clear,320,2013-03-07 04:15:00
11:35 PM,33.8,21.2,60,30.13,10.0,NW,8.1,-,N/A,,Clear,310,2013-03-07 04:35:00
11:55 PM,33.8,21.2,60,30.14,10.0,NW,8.1,-,N/A,,Clear,310,2013-03-07 04:55:00